DMSP 5D-3 F16 (USA 172) 1 28054U 03048A 26144.96366262 .00000004 00000+0 25709-4 0 9991 2 28054 98.9901 168.6372 0006527 204.4350 220.0419 14.14480098166200 METEOSAT-9 (MSG-2) 1 28912U 05049B 26144.87980756 .00000120 00000+0 00000+0 0 9998 2 28912 9.3116 54.3974 0001505 324.0196 226.4452 1.00274292 6763 DMSP 5D-3 F17 (USA 191) 1 29522U 06050A 26144.90563212 .00000039 00000+0 42288-4 0 9995 2 29522 98.7381 151.9523 0011138 119.0573 241.1717 14.14988512 9133 FENGYUN 3A 1 32958U 08026A 26144.85818413 .00000067 00000+0 52176-4 0 9995 2 32958 98.6876 86.1291 0008400 188.1295 171.9746 14.19565611932093 GOES 14 1 35491U 09033A 26144.90150398 -.00000190 00000+0 00000+0 0 9998 2 35491 1.6326 83.3053 0001862 345.0126 293.7103 1.00117166 6354 DMSP 5D-3 F18 (USA 210) 1 35951U 09057A 26144.94613477 .00000222 00000+0 13789-3 0 9998 2 35951 98.9029 125.7676 0010355 322.5913 37.4539 14.14882303856302 EWS-G2 (GOES 15) 1 36411U 10008A 26144.88336091 .00000018 00000+0 00000+0 0 9996 2 36411 1.2167 83.2497 0004957 32.1326 148.5243 1.00274712 59408 COMS 1 1 36744U 10032A 26144.68224374 -.00000347 00000+0 00000+0 0 9996 2 36744 4.7504 75.6586 0000998 327.7310 212.6276 1.00271730 50857 FENGYUN 3B 1 37214U 10059A 26144.96829243 -.00000002 00000+0 22562-4 0 9995 2 37214 98.9635 190.8826 0021030 251.8855 177.9589 14.14835921804144 SUOMI NPP 1 37849U 11061A 26144.93912828 .00000079 00000+0 58291-4 0 9993 2 37849 98.7947 85.9752 0002597 53.3248 306.8167 14.19511926755143 METEOSAT-10 (MSG-3) 1 38552U 12035B 26144.87075784 -.00000009 00000+0 00000+0 0 9995 2 38552 4.6189 61.1277 0001911 325.4312 169.4390 1.00273200 50629 METOP-B 1 38771U 12049A 26144.89004162 .00000079 00000+0 55837-4 0 9996 2 38771 98.6518 196.8523 0003314 69.5849 290.5684 14.21425323709952 INSAT-3D 1 39216U 13038B 26144.46864270 -.00000343 00000+0 00000+0 0 9999 2 39216 1.8671 82.8272 0001144 314.3916 143.0545 1.00269197 46841 FENGYUN 3C 1 39260U 13052A 26144.93352179 .00000063 00000+0 52808-4 0 9992 2 39260 98.4968 119.8783 0015878 90.2051 270.0944 14.15748867655271 METEOR-M 2 1 40069U 14037A 26144.91682838 .00000147 00000+0 86296-4 0 9992 2 40069 98.5105 121.4817 0006913 100.8252 259.3704 14.21454241616012 HIMAWARI-8 1 40267U 14060A 26144.89864397 -.00000279 00000+0 00000+0 0 9998 2 40267 0.0442 94.9568 0000974 351.9835 259.7159 1.00270660 42529 FENGYUN 2G 1 40367U 14090A 26144.74788888 -.00000301 00000+0 00000+0 0 9992 2 40367 5.5826 73.0946 0002791 140.6485 37.1308 1.00260302 41768 METEOSAT-11 (MSG-4) 1 40732U 15034A 26144.87261420 .00000060 00000+0 00000+0 0 9990 2 40732 3.1437 71.2334 0001684 359.6778 134.9523 1.00273006 6989 ELEKTRO-L 2 1 41105U 15074A 26144.08368042 -.00000122 00000+0 00000+0 0 9990 2 41105 6.6361 70.8140 0001458 261.5773 284.9173 1.00271646 38264 SENTINEL-3A 1 41335U 16011A 26144.93344460 .00000074 00000+0 48652-4 0 9994 2 41335 98.6255 212.6497 0001206 108.3769 251.7543 14.26738713534749 INSAT-3DR 1 41752U 16054A 26144.88544093 -.00000080 00000+0 00000+0 0 9990 2 41752 0.1155 87.2596 0010770 190.7428 357.2436 1.00272343 35589 HIMAWARI-9 1 41836U 16064A 26144.89864397 -.00000278 00000+0 00000+0 0 9996 2 41836 0.0405 133.5788 0000923 335.2725 237.9206 1.00273016 34971 GOES 16 1 41866U 16071A 26144.92135074 -.00000094 00000+0 00000+0 0 9990 2 41866 0.2836 85.6630 0000827 273.3521 110.5184 1.00272708 34873 FENGYUN 4A 1 41882U 16077A 26144.96659002 -.00000359 00000+0 00000+0 0 9994 2 41882 2.2664 80.5234 0008429 146.1949 127.4019 1.00264496 34692 CYGFM05 1 41884U 16078A 26144.89167980 .00020315 00000+0 28731-3 0 9996 2 41884 34.9578 54.7193 0009046 289.5461 70.4286 15.55507464525120 CYGFM04 1 41885U 16078B 26144.93258304 .00026291 00000+0 31319-3 0 9998 2 41885 34.9339 23.2738 0007898 327.3992 32.6245 15.60037856525365 CYGFM02 1 41886U 16078C 26144.91164979 .00030484 00000+0 32870-3 0 9993 2 41886 34.9420 18.5929 0009006 330.1211 29.9001 15.62575282525524 CYGFM01 1 41887U 16078D 26144.89028191 .00021412 00000+0 29568-3 0 9997 2 41887 34.9408 55.9704 0008770 283.9674 76.0075 15.56145841525073 CYGFM08 1 41888U 16078E 26144.88848340 .00024549 00000+0 30832-3 0 9993 2 41888 34.9442 36.1556 0009945 311.6301 48.3572 15.58638034525335 CYGFM07 1 41890U 16078G 26144.97720510 .00025120 00000+0 31446-3 0 9992 2 41890 34.9461 23.9296 0008306 327.2589 32.7621 15.58740696525379 CYGFM03 1 41891U 16078H 26144.94811465 .00024362 00000+0 30510-3 0 9998 2 41891 34.9415 26.0675 0007826 315.9625 44.0476 15.58738080525340 FENGYUN 3D 1 43010U 17072A 26144.89063571 -.00000053 00000+0 -34557-5 0 9999 2 43010 99.0118 118.8941 0002480 101.6283 258.5171 14.19733854441682 NOAA 20 (JPSS-1) 1 43013U 17073A 26144.88176575 .00000053 00000+0 46061-4 0 9991 2 43013 98.7765 84.5525 0001079 39.7013 320.4242 14.19506853441169 GOES 17 1 43226U 18022A 26144.92438409 -.00000185 00000+0 00000+0 0 9999 2 43226 0.8811 86.0344 0000552 337.5036 62.2693 1.00271825 30198 SENTINEL-3B 1 43437U 18039A 26144.90658417 .00000031 00000+0 30810-4 0 9998 2 43437 98.6253 212.7717 0001201 74.2372 285.8941 14.26733896420802 FENGYUN 2H 1 43491U 18050A 26144.95783664 -.00000133 00000+0 00000+0 0 9996 2 43491 2.9741 79.3356 0001624 145.6006 81.8725 1.00271860 29203 METOP-C 1 43689U 18087A 26144.91053762 .00000080 00000+0 56445-4 0 9999 2 43689 98.6655 204.9380 0000764 150.8760 209.2460 14.21504833391525 GEO-KOMPSAT-2A 1 43823U 18100A 26144.18314021 -.00000349 00000+0 00000+0 0 9992 2 43823 0.0491 105.4499 0003034 332.5231 358.0201 1.00270588 27387 METEOR-M2 2 1 44387U 19038A 26144.92289209 -.00000001 00000+0 19428-4 0 9994 2 44387 98.9143 131.8667 0002374 84.7360 275.4090 14.24358669357985 ARKTIKA-M 1 1 47719U 21016A 26144.06756793 -.00000118 00000+0 00000+0 0 9997 2 47719 63.2351 61.1234 7279642 269.8294 14.7586 2.00630669 38301 FENGYUN 3E 1 49008U 21062A 26144.94758910 -.00000418 00000+0 -17606-3 0 9999 2 49008 98.7501 148.6152 0002306 125.8618 234.2773 14.19900384253289 GOES 18 1 51850U 22021A 26144.91493737 .00000093 00000+0 00000+0 0 9996 2 51850 0.0012 149.1140 0000492 319.7144 326.0550 1.00272824 6359 NOAA 21 (JPSS-2) 1 54234U 22150A 26144.91551830 .00000039 00000+0 39319-4 0 9997 2 54234 98.7053 84.0964 0000499 256.0134 104.0986 14.19560586183247 METEOSAT-12 (MTG-I1) 1 54743U 22170C 26144.94205056 -.00000010 00000+0 00000+0 0 9993 2 54743 0.7583 26.9433 0000780 0.6724 193.7643 1.00274614 12741 TIANMU-1 03 1 55973U 23039A 26144.95710449 .00013986 00000+0 28325-3 0 9991 2 55973 97.5233 318.0313 0003540 159.0130 201.1265 15.46530992177242 TIANMU-1 04 1 55974U 23039B 26144.95536024 .00014209 00000+0 28211-3 0 9990 2 55974 97.5169 317.1821 0004235 158.5685 201.5743 15.47102170177256 TIANMU-1 05 1 55975U 23039C 26144.93678240 .00013050 00000+0 26509-3 0 9997 2 55975 97.5213 317.6337 0002951 175.0334 185.0945 15.46461537177223 TIANMU-1 06 1 55976U 23039D 26144.95737317 .00014183 00000+0 28246-3 0 9999 2 55976 97.5222 318.2677 0003298 172.7583 187.3715 15.47017190177259 FENGYUN 3G 1 56232U 23055A 26144.88613642 .00021423 00000+0 33599-3 0 9991 2 56232 49.9919 106.2359 0005646 90.7445 269.4170 15.53569041176380 METEOR-M2 3 1 57166U 23091A 26144.91189647 -.00000023 00000+0 86498-5 0 9997 2 57166 98.6095 200.3646 0003051 225.5979 134.4951 14.24044428151202 TIANMU-1 07 1 57399U 23101A 26144.94276615 .00005561 00000+0 19708-3 0 9991 2 57399 97.2609 196.1485 0002240 173.5733 186.5537 15.29492747158097 TIANMU-1 08 1 57400U 23101B 26144.58235897 .00006048 00000+0 21406-3 0 9990 2 57400 97.2597 195.5705 0003773 177.7343 182.3915 15.29496153158032 TIANMU-1 09 1 57401U 23101C 26144.89329396 .00005489 00000+0 19442-3 0 9998 2 57401 97.2556 195.3019 0002492 187.2228 172.8977 15.29519097158089 TIANMU-1 10 1 57402U 23101D 26144.92590606 .00005576 00000+0 19761-3 0 9998 2 57402 97.2635 196.3606 0004053 195.2081 164.9038 15.29490503158082 FENGYUN 3F 1 57490U 23111A 26144.93203368 .00000032 00000+0 35375-4 0 9995 2 57490 98.6841 215.3729 0001433 110.0658 250.0673 14.19934381145561 ARKTIKA-M 2 1 58584U 23198A 26144.33347125 .00000154 00000+0 00000+0 0 9996 2 58584 63.2201 157.0242 6895752 267.5045 18.7884 2.00593321 17849 TIANMU-1 11 1 58645U 23205A 26144.98488046 .00005078 00000+0 19575-3 0 9993 2 58645 97.3461 166.9099 0010861 88.3029 271.9454 15.26714201133981 TIANMU-1 12 1 58646U 23205B 26144.95464479 .00005169 00000+0 19957-3 0 9990 2 58646 97.3451 166.6407 0009038 75.5436 284.6806 15.26669636133966 TIANMU-1 13 1 58647U 23205C 26144.98462556 .00005147 00000+0 19962-3 0 9990 2 58647 97.3477 166.9392 0008528 58.8450 301.3624 15.26526170133964 TIANMU-1 14 1 58648U 23205D 26144.97051096 .00004999 00000+0 19366-3 0 9995 2 58648 97.3414 166.1254 0009444 62.2539 297.9657 15.26570933133962 TIANMU-1 19 1 58660U 23208A 26144.89434310 .00007273 00000+0 24412-3 0 9993 2 58660 97.4475 261.0859 0005812 52.8085 307.3686 15.31160859133760 TIANMU-1 20 1 58661U 23208B 26144.95024887 .00007583 00000+0 24504-3 0 9991 2 58661 97.4417 261.7532 0008076 56.3520 303.8491 15.32353701133867 TIANMU-1 21 1 58662U 23208C 26144.90785611 .00008578 00000+0 25809-3 0 9990 2 58662 97.4475 264.2921 0007936 50.3176 309.8765 15.34593339133996 TIANMU-1 22 1 58663U 23208D 26144.93387413 .00007192 00000+0 24509-3 0 9999 2 58663 97.4470 261.0807 0005054 75.1253 285.0547 15.30675105133777 TIANMU-1 15 1 58700U 24004A 26144.96494384 .00004937 00000+0 19043-3 0 9996 2 58700 97.4676 331.1555 0008499 75.5389 284.6793 15.26741832132230 TIANMU-1 16 1 58701U 24004B 26144.95000650 .00004790 00000+0 18642-3 0 9996 2 58701 97.4623 330.4037 0007537 79.0828 281.1259 15.26468561132233 TIANMU-1 17 1 58702U 24004C 26144.93545557 .00004931 00000+0 19183-3 0 9993 2 58702 97.4651 330.8653 0007120 83.4321 276.7728 15.26469241132224 TIANMU-1 18 1 58703U 24004D 26144.91578545 .00004477 00000+0 17313-3 0 9993 2 58703 97.4668 331.0866 0005642 80.5373 279.6504 15.26729800132228 INSAT-3DS 1 58990U 24033A 26144.95835664 -.00000159 00000+0 00000+0 0 9990 2 58990 0.0327 250.4377 0001455 160.5183 258.6652 1.00272449 46836 METEOR-M2 4 1 59051U 24039A 26144.97054091 .00000013 00000+0 25473-4 0 9998 2 59051 98.6999 104.5624 0006073 232.0537 128.0093 14.22426832115961 GOES 19 1 60133U 24119A 26144.92724410 -.00000251 00000+0 00000+0 0 9993 2 60133 0.0468 112.0516 0000382 10.7057 18.3757 1.00272599 6734 MTG-S1 1 64723U 25143A 26144.94144389 -.00000036 00000+0 00000+0 0 9994 2 64723 0.6242 334.2458 0001459 23.3059 220.4631 1.00269842 3180 METOP-SGA1 1 65159U 25172A 26144.91084314 .00000026 00000+0 31723-4 0 9997 2 65159 98.6655 205.0619 0001091 83.1976 276.9326 14.21505270 40483 FENGYUN 3H 1 65815U 25219A 26144.85763362 .00000043 00000+0 40639-4 0 9993 2 65815 98.6761 86.0817 0001541 94.8743 265.2610 14.19915608 34070